User: anonymous   Login
Location: Gajan
(43.0218°N, 1.1244°E)
Time: 13:33:50
(UTC+00:00)
Language:

Cosmos 2360 Rocket - Orbit

View from above orbital plane
View from above orbital plane
View from above satellite
View from above satellite

Ground track
Ground track

The orbit data is extracted from the following two-line orbital elements,

1 25407U 98045B   21170.79613221 -.00000141  00000-0 -47674-4 0  9996
2 25407  71.0096 205.5714 0006105 148.4718 211.6772 14.15837067183349
Epoch (UTC): 19 June 2021 19:06:25
Eccentricity: 0.0006105
inclination: 71.0096°
perigee height: 835 km
apogee height: 844 km
right ascension of ascending node: 205.5714°
argument of perigee: 148.4718°
revolutions per day: 14.15837067
mean anomaly at epoch: 211.6772°
orbit number at epoch: 18334

The dashed part of the orbit path shows where the satellite is in the earth's shadow,  

DLR